[[{"header":{"parameterUnit":"m.s-1","parameterCategory":1,"la1":30.2991,"la2":30.254,"lo1":-89.0895,"lo2":-89.0444,"dy":0.0017,"dx":0.0017,"nx":28,"ny":28,"refTime":"2024-03-12T21:00:00:Z","depth":0,"parameterNumber":2,"parameterNumberName":"U-component_of_WINDS"},"data":[0,0,0,0,0,0,0,0,0,0,0,0,0,0,0,0,0,0,0,0,0,0,0,0,0,0,0,0,0,0,0,0,0,0,0,0,0,0,0,0,0,0,0,0,0,0,0,0,0,0,0,0,0,0,0,0,0,0,-4.8428,-4.8429,0,-4.855,-4.8552,-4.8553,-4.853,-4.8527,-4.8525,-4.8523,-4.8647,-4.8652,-4.8658,0,0,0,0,0,0,0,0,0,0,0,0,0,-4.8175,-4.818,-4.8428,-4.8429,-4.8431,-4.855,-4.8552,-4.8553,-4.853,-4.8527,-4.8525,-4.8522,-4.8645,-4.8652,-4.8658,0,0,0,0,0,0,0,0,0,0,0,0,0,-4.829,-4.8181,-4.8427,-4.8434,-4.8435,-4.855,-4.8552,-4.8554,-4.853,-4.8527,-4.8524,-4.8521,-4.8643,-4.8651,-4.8659,-4.8775,0,0,-4.8684,-4.8687,0,0,0,0,0,0,0,0,-4.8283,-4.8299,-4.8431,-4.8433,-4.8435,-4.8521,-4.8508,-4.8628,-4.8531,-4.8494,-4.8523,-4.8519,-4.8608,-4.8619,-4.8649,-4.8781,-4.8786,-4.8684,-4.8689,-4.8693,-4.8695,0,0,0,0,0,0,0,-4.8275,-4.8294,-4.8476,-4.8433,-4.8436,-4.8431,-4.8443,-4.8531,-4.8568,-4.8497,-4.8496,-4.8511,-4.8608,-4.8641,-4.8652,-4.8788,-4.8684,-4.8691,-4.8696,-4.8699,-4.9022,-4.9026,0,0,0,0,0,0,-4.8265,-4.8287,-4.8472,-4.848,-4.835,-4.8438,-4.8452,-4.8497,-4.8567,-4.8575,-4.8513,-4.8509,-4.8629,-4.8642,-4.8656,-4.8796,-4.8693,-4.87,-4.8705,-4.9019,-4.9023,-4.9027,0,0,0,0,0,0,-4.826,-4.8282,-4.8467,-4.8383,-4.8406,-4.8446,-4.8496,-4.8501,-4.8534,-4.8579,-4.8586,-4.854,-4.8627,-4.8645,-4.8746,-4.88,-4.8704,-4.8711,-4.9014,-4.902,-4.9025,-4.9077,0,0,0,0,0,0,-4.8253,-4.828,-4.8324,-4.8384,-4.8411,-4.8555,-4.85,-4.8506,-4.8548,-4.8543,-4.8606,-4.8613,-4.8626,-4.8734,-4.8754,-4.8809,-4.8717,-4.9009,-4.9017,-4.9023,-4.907,-4.9083,-4.9094,0,0,0,0,0,-4.8244,-4.8333,-4.8326,-4.8349,-4.8466,-4.8558,-4.8573,-4.8586,-4.8552,-4.8597,-4.8627,-4.8611,-4.8792,-4.8745,-4.8767,-4.8825,-4.9006,-4.9015,-4.9023,-4.9065,-4.9081,-4.9094,0,0,0,0,0,0,-4.8276,-4.8341,-4.8334,-4.8445,-4.8497,-4.8554,-4.861,-4.8603,-4.8664,-4.8657,-4.8671,-4.8686,-4.8788,-4.8818,-4.8764,-4.8942,-4.8894,-4.8907,-4.8918,-4.8934,-4.8946,-4.8935,-4.8724,0,0,0,0,0,-4.8297,-4.8366,-4.8419,-4.8512,-4.8538,-4.857,-4.861,-4.8616,-4.867,-4.8691,-4.8728,-4.878,-4.8849,-4.8893,-4.8959,-4.9076,-4.9089,-4.9127,-4.914,-4.9149,-4.9159,-4.9224,-4.9242,-4.9055,-4.9055,-4.9055,0,0,-4.8339,-4.8383,-4.8425,-4.8519,-4.856,-4.8631,-4.8588,-4.8665,-4.8718,-4.8702,-4.88,-4.883,-4.8889,-4.8999,-4.9049,-4.9026,-4.9215,-4.916,-4.9167,-4.9172,-4.9235,-4.9252,-4.9268,-4.9061,-4.906,-4.9059,0,0,-4.8451,-4.8492,-4.8574,-4.8616,-4.8679,-4.87,-4.872,-4.878,-4.8799,-4.8898,-4.8888,-4.8952,-4.907,-4.9113,-4.915,-4.9284,-4.9272,-4.9306,-4.9368,-4.943,-4.9445,-4.9458,-4.9505,-4.9522,-4.9317,-4.9317,-4.9317,0,-4.8495,-4.8602,-4.8617,-4.8696,-4.8738,-4.873,-4.8813,-4.8853,-4.8934,-4.8963,-4.8937,-4.9087,-4.9126,-4.9246,-4.9279,-4.931,-4.9333,-4.9296,-4.9442,-4.9455,-4.9468,-4.9512,-4.953,-4.932,-4.932,-4.9319,-4.9319,0,-4.8653,-4.8727,-4.8787,-4.8865,-4.8915,-4.8995,-4.9023,-4.9072,-4.9075,-4.91,-4.9202,-4.925,-4.9325,-4.9355,-4.9359,-4.9476,-4.946,-4.9439,-4.939,-4.9489,-4.9531,-4.9548,-4.9325,-4.9324,-4.9323,-4.9322,0,0,-4.8784,-4.8874,-4.8895,-4.8931,-4.9002,-4.9059,-4.9141,-4.9216,-4.9257,-4.9315,-4.9383,-4.9485,-4.9466,-4.9509,-4.9518,-4.9573,-4.9676,-4.9545,-4.9546,-4.9566,-4.9808,-4.9822,-4.9842,-4.967,-4.9674,-4.9676,-4.9803,0,-4.8902,-4.9045,-4.9063,-4.919,-4.926,-4.9255,-4.9327,-4.9378,-4.9404,-4.9467,-4.9497,-4.9568,-4.9538,-4.9564,-4.9619,-4.9651,-4.9724,-4.9643,-4.9733,-4.9736,-4.9715,-4.9864,-4.9878,-4.9995,-4.9819,-4.9822,-4.9824,0,-4.9056,-4.9119,-4.9254,-4.9316,-4.9346,-4.941,-4.9481,-4.9542,-4.9601,-4.9616,-4.9666,-4.9669,-4.9754,-4.9706,-4.9823,-4.9768,-4.9807,-4.9829,-4.9834,-4.984,-4.9783,-4.9872,-5.0033,-5.0049,-4.9851,-4.9849,-4.9847,0,-4.9137,-4.9256,-4.9351,-4.9383,-4.9459,-4.9504,-4.9538,-4.9594,-4.9638,-4.9702,-4.9731,-4.9803,-4.9842,-4.9898,-4.9921,-4.9884,-5.0038,-4.9991,-5.0052,-5.0052,-5.0081,-5.0078,-5.0248,-5.0111,-5.0111,-5.0111,-5.011,0,-4.9264,-4.9346,-4.9389,-4.9447,-4.954,-4.9561,-4.9652,-4.9685,-4.9735,-4.98,-4.9803,-4.9864,-4.9892,-4.9958,-4.9977,-5.0071,-5.009,-5.0104,-5.0108,-5.0102,-5.01,-5.0125,-5.0116,-5.0115,-5.0114,-5.0114,-5.0113,0,-4.9368,-4.94,-4.9504,-4.9568,-4.9587,-4.9652,-4.9707,-4.9765,-4.9793,-4.9875,-4.9896,-4.9939,-5.0018,-5.0048,-5.0143,-5.0156,-5.0264,-5.0263,-5.0244,-5.0244,-5.0303,-5.0296,-5.0492,-5.0518,-5.0367,-5.0368,-5.0369,0,-4.9445,-4.9508,-4.9581,-4.9625,-4.966,-4.9732,-4.9778,-4.9803,-4.9852,-4.9926,-4.9974,-5.0053,-5.0116,-5.0242,-5.0282,-5.0355,-5.0354,-5.0418,-5.0364,-5.0357,-5.0352,-5.0347,-5.0353,-5.0426,-5.0427,-5.0429,-5.043,0,-4.9579,-4.9592,-4.9659,-4.9732,-4.9788,-4.9847,-4.9904,-4.994,-4.9974,-5.0029,-5.0109,-5.0159,-5.0258,-5.0335,-5.0412,-5.0447,-5.0444,-5.0447,-5.0465,-5.0458,-5.0444,-5.0451,-5.0268,-5.0441,-5.044,-5.0439,-5.0439,-5.0438,-4.967,-4.9726,-4.9786,-4.9861,-4.9908,-4.9962,-5.0019,-5.0056,-5.0123,-5.0205,-5.0217,-5.0303,-5.0364,-5.0466,-5.0506,-5.0574,-5.0557,-5.0583,-5.0589,-5.0594,-5.0597,-5.0436,-5.0588,-5.0588,-5.0588,-5.0587,-5.0587,0,-4.9802,-4.9841,-4.991,-4.9991,-5.0051,-5.0046,-5.011,-5.0159,-5.0235,-5.0292,-5.0356,-5.0449,-5.0526,-5.0574,-5.0651,-5.0696,-5.0697,-5.0716,-5.0711,-5.0719,-5.0609,-5.0585,-5.0714,-5.0714,-5.0714,-5.0714,-5.0714,-5.0714,-4.9877,-4.9972,-4.9993,-5.0112,-5.0152,-5.0236,-5.0273,-5.0324,-5.037,-5.0474,-5.0538,-5.0569,-5.0623,-5.0705,-5.0775,-5.0787,-5.0815,-5.0834,-5.0845,-5.074,-5.0727,-5.0714,-5.0691,-5.0841,-5.0841,-5.0949,-5.095,-5.0951]},{"header":{"parameterUnit":"m.s-1","parameterCategory":1,"la1":30.2991,"la2":30.254,"lo1":-89.0895,"lo2":-89.0444,"dy":0.0017,"dx":0.0017,"nx":28,"ny":28,"refTime":"2024-03-12T21:00:00:Z","depth":0,"parameterNumber":3,"parameterNumberName":"V-component_of_WINDS"},"data":[0,0,0,0,0,0,0,0,0,0,0,0,0,0,0,0,0,0,0,0,0,0,0,0,0,0,0,0,0,0,0,0,0,0,0,0,0,0,0,0,0,0,0,0,0,0,0,0,0,0,0,0,0,0,0,0,0,0,1.7919,1.792,0,1.7951,1.7951,1.7952,1.7965,1.7965,1.7965,1.7965,1.7993,1.7994,1.7995,0,0,0,0,0,0,0,0,0,0,0,0,0,1.7869,1.787,1.7919,1.792,1.792,1.7951,1.7951,1.7952,1.7965,1.7965,1.7965,1.7965,1.7993,1.7994,1.7995,0,0,0,0,0,0,0,0,0,0,0,0,0,1.7895,1.787,1.7919,1.793,1.7932,1.7951,1.7951,1.7952,1.7965,1.7965,1.7965,1.7964,1.7993,1.7994,1.7995,1.8004,0,0,1.7999,1.7999,0,0,0,0,0,0,0,0,1.7893,1.7897,1.7928,1.793,1.7931,1.7954,1.7944,1.7969,1.7965,1.7952,1.7965,1.7964,1.798,1.7982,1.7988,1.8006,1.8007,1.7999,1.8,1.8,1.8001,0,0,0,0,0,0,0,1.7891,1.7895,1.7932,1.7929,1.793,1.7933,1.7937,1.7949,1.7966,1.7953,1.7954,1.7958,1.7981,1.7987,1.7989,1.8007,1.7999,1.8,1.8001,1.8001,1.8037,1.8038,0,0,0,0,0,0,1.7888,1.7894,1.7931,1.7933,1.7912,1.7934,1.7938,1.7947,1.7966,1.7969,1.7958,1.7958,1.7985,1.7988,1.799,1.8004,1.8,1.8001,1.8002,1.8037,1.8037,1.8038,0,0,0,0,0,0,1.7887,1.7891,1.7929,1.7914,1.7919,1.7935,1.7944,1.7947,1.7954,1.797,1.7973,1.7961,1.7985,1.7988,1.8002,1.8005,1.8002,1.8003,1.8037,1.8037,1.8037,1.8031,0,0,0,0,0,0,1.7885,1.7891,1.7894,1.7914,1.7919,1.7941,1.7945,1.7948,1.7956,1.7957,1.7974,1.7976,1.7985,1.8,1.8003,1.8007,1.8004,1.8037,1.8037,1.8037,1.8031,1.8031,1.8032,0,0,0,0,0,1.7884,1.789,1.7895,1.7899,1.7924,1.7941,1.7944,1.7955,1.7956,1.796,1.7971,1.7976,1.8005,1.8001,1.8005,1.8009,1.8036,1.8037,1.8037,1.8031,1.8031,1.8032,0,0,0,0,0,0,1.7869,1.7892,1.7898,1.791,1.7924,1.7943,1.7948,1.7955,1.7967,1.7967,1.798,1.7983,1.7996,1.8004,1.7999,1.8021,1.8021,1.8022,1.8015,1.8015,1.8015,1.8013,1.8005,0,0,0,0,0,1.7867,1.7879,1.7899,1.7908,1.7915,1.7931,1.7938,1.7946,1.796,1.7965,1.7976,1.7989,1.8001,1.8009,1.802,1.8033,1.8037,1.8038,1.8038,1.8038,1.8039,1.8048,1.8049,1.8039,1.8039,1.8039,0,0,1.7863,1.7878,1.7884,1.7906,1.7917,1.7929,1.7935,1.7947,1.7956,1.7966,1.798,1.799,1.8004,1.8018,1.8025,1.8025,1.8043,1.8039,1.8039,1.8039,1.8049,1.805,1.8051,1.804,1.804,1.8039,0,0,1.7863,1.7875,1.7885,1.7898,1.7915,1.7926,1.7929,1.7948,1.7955,1.797,1.7979,1.799,1.801,1.8021,1.8029,1.8038,1.8043,1.8041,1.8041,1.8051,1.8051,1.8052,1.8056,1.8058,1.8042,1.8042,1.8042,0,1.7856,1.7875,1.7889,1.7902,1.7912,1.7924,1.7936,1.7946,1.7966,1.7973,1.7974,1.8002,1.8012,1.803,1.8032,1.8038,1.8042,1.8039,1.805,1.8051,1.8052,1.8056,1.8058,1.8041,1.8042,1.8042,1.8042,0,1.7867,1.788,1.7886,1.7908,1.7919,1.793,1.7947,1.7956,1.7964,1.7975,1.7991,1.8005,1.8021,1.8026,1.8032,1.8045,1.8045,1.8048,1.8048,1.8053,1.8057,1.8059,1.8041,1.8041,1.8041,1.8041,0,0,1.7855,1.7888,1.789,1.7901,1.7924,1.7934,1.7947,1.7965,1.7973,1.7988,1.7999,1.8018,1.8022,1.8031,1.804,1.8048,1.8056,1.805,1.805,1.8051,1.8073,1.8071,1.8073,1.806,1.806,1.806,1.8072,0,1.7859,1.7884,1.7899,1.7918,1.7931,1.7945,1.7957,1.7972,1.7983,1.7996,1.8009,1.8022,1.8025,1.8032,1.804,1.8053,1.806,1.8052,1.8071,1.8072,1.8067,1.8075,1.8072,1.8082,1.8074,1.8074,1.8074,0,1.7865,1.7882,1.7903,1.7927,1.7934,1.7944,1.7963,1.7976,1.7994,1.8002,1.8014,1.8023,1.8038,1.8039,1.806,1.8054,1.8063,1.8071,1.8072,1.8074,1.8073,1.8078,1.8086,1.8088,1.8077,1.8077,1.8076,0,1.7857,1.7885,1.7902,1.7911,1.7939,1.7946,1.7958,1.7976,1.7987,1.8004,1.8011,1.8028,1.8038,1.8051,1.8065,1.8064,1.8086,1.8087,1.8093,1.8093,1.8097,1.8097,1.8107,1.8102,1.8102,1.8102,1.8102,0,1.7859,1.7872,1.7899,1.7909,1.7924,1.7942,1.7956,1.7969,1.7986,1.7999,1.8012,1.8024,1.8042,1.8056,1.8067,1.8084,1.8088,1.8095,1.8098,1.8094,1.8094,1.81,1.81,1.8102,1.8102,1.8102,1.8102,0,1.7852,1.787,1.789,1.7916,1.7923,1.7933,1.7956,1.7967,1.798,1.7997,1.8002,1.8023,1.8041,1.8057,1.808,1.8087,1.8105,1.8108,1.81,1.8101,1.8108,1.8107,1.8123,1.8127,1.8118,1.8118,1.8119,0,1.7852,1.7863,1.7891,1.7902,1.7915,1.7931,1.7944,1.7962,1.7974,1.7998,1.8006,1.8026,1.8042,1.8071,1.8087,1.8106,1.811,1.8114,1.8113,1.811,1.8111,1.8111,1.8113,1.8114,1.8114,1.8114,1.8114,0,1.7852,1.7861,1.7879,1.7901,1.7916,1.7933,1.7951,1.7959,1.7981,1.7994,1.8014,1.8027,1.8053,1.8072,1.8094,1.8105,1.8114,1.8115,1.8118,1.8114,1.8109,1.8114,1.8101,1.8114,1.8114,1.8114,1.8114,1.8114,1.7849,1.786,1.7883,1.7903,1.7919,1.7936,1.7949,1.7966,1.7983,1.8007,1.8016,1.8037,1.8058,1.8087,1.81,1.8116,1.8117,1.8121,1.8122,1.8123,1.8123,1.8107,1.812,1.812,1.812,1.812,1.812,0,1.785,1.7866,1.7885,1.7911,1.7927,1.7936,1.7957,1.797,1.7989,1.8008,1.8025,1.805,1.807,1.809,1.8111,1.812,1.8125,1.8125,1.8125,1.8128,1.812,1.8116,1.8122,1.8122,1.8122,1.8122,1.8122,1.8122,1.7852,1.7873,1.7886,1.7915,1.7931,1.7953,1.7964,1.7981,1.7997,1.8024,1.8042,1.8055,1.8075,1.8099,1.8118,1.8123,1.8131,1.813,1.8137,1.8129,1.8128,1.8128,1.8124,1.8132,1.8132,1.8144,1.8144,1.8144]}]]